Hourly Data Report for October 17, 2013

All times are specified in Local Standard Time (LST). Add 1 hour to adjust for Daylight Saving Time where and when it is observed.

KUGAARUK CLIMATE
NUNAVUT

68°32'15.060" N
89°47'47.020" W
15.80 m
2303094
71407
NBB

Download Data

Hourly Data (October 2013)
Hourly Data Report for October 17, 2013
Temp Definition
°C
Dew Point Temp Definition
°C
Rel Hum Definition
%
Wind Dir Definition
10's deg

Wind Spd Definition
km/h
Visibility Definition
km
Stn Press Definition
kPa
Hmdx Definition


Wind Chill Definition


Weather Definition


TIME
00:00 -6.2 -7.2 93 21 11   100.08   -11 LegendNANA
01:00 -6.2 -6.9 95 24 9   100.09   -10 LegendNANA
02:00 -6.3 -7.4 92 22 9   100.10   -11 LegendNANA
03:00 -6.1 -7.4 90 22 11   100.12   -11 LegendNANA
04:00 -6.1 -7.1 93 23 9   100.11   -10 LegendNANA
05:00 -6.3 -7.3 93 23 6   100.12   -9 LegendNANA
06:00 -5.9 -6.8 93 25 2   100.12   -7 LegendNANA
07:00 -6.6 -7.8 91 4 2   100.09   -8 LegendNANA
08:00 -8.5 -9.9 90 11 4   100.08   -11 LegendNANA
09:00 -7.2 -9.0 87 7 2   100.08   -8 LegendNANA
10:00 -6.4 -7.8 90 7 7   100.04   -10 LegendNANA
11:00 -5.8 -7.3 89 2 17   99.99   -12 LegendNANA
12:00 -5.0 -6.2 91 2 20   99.94   -12 LegendNANA
13:00 -4.0 -5.2 91 2 22   99.89   -11 LegendNANA
14:00 -3.4 -4.4 93 2 30   99.81   -11 LegendNANA
15:00 -3.1 -4.0 93 2 30   99.76   -11 LegendNANA
16:00 -2.7 -3.5 94 2 30   99.70   -10 LegendNANA
17:00 -2.0 -2.6 96 1 26   99.68   -9 LegendNANA
18:00 -1.4 -2.0 96 2 19   99.65   -7 LegendNANA
19:00 -0.9 -1.3 97 6 13   99.65   -5 LegendNANA
20:00 -0.3 -0.8 96 10 17   99.66   -5 LegendNANA
21:00 -0.3 -0.9 96 10 15   99.67   -5 LegendNANA
22:00 -0.2 -0.8 96 10 17   99.67   -5 LegendNANA
23:00 -0.5 -1.1 96 8 17   99.68   -5 LegendNANA

Notes on Data Quality.

Legend

  • E = Estimated
  • M = Missing
  • NA = Not Available
  • ‡ = Partner data that is not subject to review by the National Climate Archives
Date modified: